Location: ??????
(30.5519°N, 47.7720°E)
Time: 17:17:09
(UTC+00:00)

ISS - Visible Passes

Search period start: 22 April 2021 00:00
Search period end: 02 May 2021 00:00
Orbit: 418 x 421 km, 51.6° (Epoch: 22 April)

Date Brightness Start Highest point End Pass type
(mag) Time Alt. Az. Time Alt. Az. Time Alt. Az.
23 Apr -3.5 01:23:06 13° SW 01:26:03 67° SE 01:29:24 10° NE visible
24 Apr -2.4 00:38:00 28° SSE 00:38:46 32° SE 00:41:49 10° ENE visible
24 Apr -0.9 23:52:48 14° E 23:52:48 14° E 23:53:47 10° E visible
25 Apr -2.6 01:25:47 14° W 01:28:08 30° NW 01:31:10 10° NNE visible
26 Apr -3.6 00:40:28 55° WNW 00:40:43 57° NW 00:44:02 10° NE visible
26 Apr -1.6 23:55:03 26° NE 23:55:03 26° NE 23:56:42 10° NE visible
27 Apr -1.2 01:29:17 10° NW 01:30:28 11° NNW 01:31:40 10° NNW visible
28 Apr -1.8 00:42:32 18° NW 00:42:54 18° NW 00:45:19 10° N visible
28 Apr -1.4 23:56:59 20° N 23:56:59 20° N 23:58:25 10° NNE visible
30 Apr -0.8 23:58:38 10° NNW 23:58:38 10° NNW 23:58:50 10° NNW visible
